QPF
0.00 0.00 0.00 0.00 0.00 0.00 0.00 0.00 0.00 0.00 0.00 0.00 0.00 0.00 0.00 0.00 0.00 0.00 0.00 0.00 0.00 0.00 0.00 0.00 0.00 0.00 0.00 0.00 0.00 0.00 0.00 0.00 0.00 0.00 0.00 0.01 0.01 0.01 0.01 0.01 0.00 0.00 0.00 0.00
0.00 0.00 0.00 0.00 0.00 0.00 0.00 0.00 0.00 0.00 0.00 0.00 0.00 0.00 0.00 0.00 0.00 0.00 0.00 0.00 0.00 0.00 0.00 0.00 0.00 0.00 0.00 0.00 0.00 0.00 0.00 0.00 0.00 0.00 0.00 0.00 0.00 0.01 0.01 0.00 0.00 0.00 0.00 0.00
0.00 0.00 0.00 0.00 0.00 0.00 0.00 0.00 0.00 0.00 0.00 0.00 0.00 0.00 0.00 0.00 0.00 0.00 0.00 0.00 0.00 0.00 0.00 0.00 0.00 0.00 0.00 0.00 0.00 0.00 0.00 0.00 0.00 0.00 0.00 0.00 0.00 0.00 0.00 0.00 0.00 0.00 0.00 0.00
0.00 0.00 0.00 0.00 0.00 0.00 0.00 0.00 0.00 0.00 0.00 0.00 0.00 0.00 0.00 0.00 0.00 0.00 0.00 0.00 0.00 0.00 0.00 0.00 0.00 0.00 0.00 0.00 0.00 0.00 0.00 0.00 0.00 0.00 0.00 0.00 0.00 0.00 0.00 0.00 0.00 0.00 0.00 0.00
0.00 0.00 0.00 0.00 0.00 0.00 0.00 0.00 0.00 0.00 0.00 0.00 0.00 0.00 0.00 0.00 0.00 0.00 0.00 0.00 0.00 0.00 0.00 0.00 0.00 0.00 0.00 0.00 0.00 0.00 0.00 0.00 0.00 0.00 0.00 0.00 0.00 0.00 0.00 0.00 0.00 0.00 0.00 0.00
0.00 0.00 0.00 0.00 0.00 0.00 0.00 0.00 0.00 0.00 0.00 0.00 0.00 0.00 0.00 0.00 0.00 0.00 0.00 0.00 0.00 0.00 0.00 0.00 0.00 0.00 0.00 0.00 0.00 0.00 0.00 0.00 0.00 0.00 0.00 0.00 0.00 0.00 0.00 0.00 0.00 0.00 0.00 0.00
0.01 0.00 0.00 0.00 0.00 0.00 0.00 0.00 0.02 0.01 0.01 0.00 0.00 0.00 0.00 0.00 0.00 0.00 0.00 0.00 0.00 0.00 0.00 0.00 0.00 0.00 0.00 0.00 0.00 0.00 0.00 0.00 0.00 0.00 0.00 0.00 0.00 0.00 0.00 0.00 0.00 0.00 0.00 0.00
0.01 0.00 0.00 0.00 0.00 0.00 0.00 0.00 0.01 0.01 0.00 0.00 0.00 0.00 0.00 0.00 0.00 0.00 0.00 0.00 0.00 0.00 0.00 0.00 0.00 0.00 0.00 0.00 0.00 0.00 0.00 0.00 0.00 0.00 0.00 0.00 0.00 0.00 0.00 0.00 0.00 0.00 0.00 0.00
0.00 0.00 0.00 0.00 0.00 0.00 0.00 0.00 0.00 0.00 0.00 0.00 0.00 0.00 0.00 0.00 0.00 0.00 0.00 0.00 0.00 0.00 0.00 0.00 0.00 0.00 0.00 0.00 0.00 0.00 0.00 0.00 0.00 0.00 0.00 0.00 0.00 0.00 0.00 0.00 0.00 0.00 0.00 0.00
0.00 0.00 0.00 0.00 0.00 0.00 0.00 0.00 0.00 0.01 0.01 0.01 0.00 0.00 0.00 0.00 0.00 0.00 0.00 0.00 0.00 0.00 0.00 0.00 0.00 0.00 0.00 0.00 0.00 0.00 0.00 0.00 0.00 0.00 0.00 0.00 0.00 0.00 0.00 0.00 0.00 0.00 0.00 0.00
0.01 0.01 0.01 0.00 0.00 0.00 0.00 0.00 0.00 0.01 0.01 0.00 0.00 0.00 0.00 0.00 0.00 0.00 0.00 0.00 0.00 0.00 0.00 0.00 0.00 0.00 0.00 0.00 0.00 0.00 0.00 0.00 0.00 0.00 0.00 0.00 0.00 0.00 0.00 0.00 0.00 0.00 0.00 0.00
0.01 0.02 0.03 0.01 0.00 0.00 0.00 0.00 0.00 0.00 0.00 0.00 0.00 0.00 0.00 0.00 0.00 0.00 0.00 0.00 0.00 0.00 0.00 0.00 0.00 0.00 0.00 0.00 0.00 0.00 0.00 0.00 0.00 0.00 0.00 0.00 0.00 0.00 0.00 0.00 0.00 0.00 0.00 0.00
0.03 0.05 0.07 0.05 0.02 0.01 0.00 0.00 0.00 0.00 0.00 0.00 0.00 0.00 0.00 0.00 0.00 0.00 0.00 0.00 0.00 0.00 0.00 0.00 0.00 0.00 0.00 0.00 0.00 0.00 0.00 0.00 0.00 0.00 0.00 0.00 0.00 0.00 0.00 0.00 0.00 0.00 0.00 0.00
0.04 0.05 0.05 0.04 0.01 0.00 0.00 0.00 0.00 0.00 0.00 0.00 0.00 0.00 0.00 0.00 0.00 0.00 0.00 0.00 0.00 0.00 0.00 0.00 0.00 0.00 0.00 0.00 0.00 0.00 0.00 0.00 0.00 0.00 0.00 0.00 0.00 0.00 0.00 0.00 0.00 0.00 0.00 0.00
0.05 0.06 0.02 0.00 0.00 0.00 0.00 0.00 0.00 0.00 0.00 0.00 0.00 0.00 0.00 0.00 0.00 0.00 0.00 0.00 0.00 0.00 0.00 0.00 0.00 0.00 0.00 0.00 0.00 0.00 0.00 0.00 0.00 0.00 0.00 0.00 0.00 0.00 0.00 0.00 0.00 0.00 0.00 0.00
0.06 0.06 0.02 0.01 0.00 0.00 0.00 0.00 0.00 0.00 0.00 0.00 0.00 0.00 0.00 0.00 0.00 0.00 0.00 0.00 0.00 0.00 0.00 0.00 0.00 0.00 0.00 0.00 0.00 0.00 0.00 0.00 0.00 0.00 0.00 0.00 0.00 0.00 0.00 0.00 0.00 0.00 0.00 0.00
0.08 0.07 0.05 0.02 0.01 0.02 0.02 0.00 0.00 0.00 0.00 0.00 0.00 0.00 0.00 0.00 0.00 0.00 0.00 0.00 0.00 0.00 0.00 0.00 0.00 0.00 0.00 0.00 0.00 0.00 0.00 0.00 0.00 0.00 0.00 0.00 0.00 0.00 0.00 0.00 0.00 0.00 0.00 0.00
0.06 0.06 0.07 0.04 0.04 0.07 0.02 0.00 0.00 0.00 0.00 0.00 0.00 0.00 0.00 0.00 0.00 0.00 0.00 0.00 0.00 0.00 0.00 0.00 0.00 0.00 0.00 0.00 0.00 0.00 0.00 0.00 0.00 0.00 0.00 0.00 0.00 0.00 0.00 0.00 0.00 0.00 0.00 0.00
0.03 0.06 0.10 0.06 0.05 0.03 0.00 0.00 0.00 0.00 0.00 0.00 0.00 0.00 0.00 0.00 0.00 0.00 0.00 0.00 0.00 0.00 0.00 0.00 0.00 0.00 0.00 0.00 0.00 0.00 0.00 0.00 0.00 0.00 0.00 0.00 0.00 0.00 0.00 0.00 0.00 0.00 0.00 0.00
0.02 0.05 0.10 0.07 0.04 0.01 0.00 0.00 0.00 0.00 0.00 0.00 0.00 0.00 0.00 0.00 0.00 0.00 0.00 0.00 0.00 0.00 0.00 0.00 0.00 0.00 0.00 0.00 0.00 0.00 0.00 0.00 0.00 0.00 0.00 0.00 0.00 0.00 0.00 0.00 0.00 0.00 0.00 0.00
0.05 0.08 0.10 0.06 0.03 0.00 0.00 0.00 0.00 0.00 0.00 0.00 0.00 0.00 0.00 0.00 0.00 0.00 0.00 0.00 0.00 0.00 0.00 0.00 0.00 0.00 0.00 0.00 0.00 0.00 0.00 0.00 0.00 0.00 0.00 0.00 0.00 0.00 0.00 0.00 0.00 0.00 0.00 0.00
0.06 0.07 0.06 0.04 0.02 0.00 0.00 0.00 0.00 0.00 0.00 0.00 0.00 0.00 0.00 0.00 0.00 0.00 0.00 0.00 0.00 0.00 0.00 0.00 0.00 0.00 0.00 0.00 0.00 0.00 0.00 0.00 0.00 0.00 0.00 0.00 0.00 0.00 0.00 0.00 0.00 0.00 0.00 0.00
0.04 0.04 0.03 0.02 0.01 0.00 0.00 0.00 0.00 0.00 0.00 0.00 0.00 0.00 0.00 0.00 0.00 0.00 0.00 0.00 0.00 0.00 0.00 0.00 0.00 0.00 0.00 0.00 0.00 0.00 0.00 0.00 0.00 0.00 0.00 0.00 0.00 0.00 0.00 0.00 0.00 0.00 0.00 0.00
0.03 0.02 0.02 0.02 0.01 0.00 0.00 0.00 0.00 0.00 0.00 0.00 0.00 0.00 0.00 0.00 0.00 0.00 0.00 0.00 0.00 0.00 0.00 0.00 0.00 0.00 0.00 0.00 0.00 0.00 0.00 0.00 0.00 0.00 0.00 0.00 0.00 0.00 0.00 0.00 0.00 0.00 0.00 0.00
0.03 0.03 0.02 0.01 0.00 0.00 0.00 0.00 0.00 0.00 0.00 0.00 0.00 0.00 0.00 0.00 0.00 0.00 0.00 0.00 0.00 0.00 0.00 0.00 0.00 0.00 0.00 0.00 0.00 0.00 0.00 0.00 0.00 0.00 0.00 0.00 0.00 0.00 0.00 0.00 0.00 0.00 0.00 0.00
0.01 0.01 0.01 0.00 0.00 0.00 0.00 0.00 0.00 0.00 0.00 0.00 0.00 0.00 0.00 0.00 0.00 0.00 0.00 0.00 0.00 0.00 0.00 0.00 0.00 0.00 0.00 0.00 0.00 0.00 0.00 0.00 0.00 0.00 0.00 0.00 0.00 0.00 0.00 0.00 0.00 0.00 0.00 0.00
MSLP
1008.71 1008.78 1008.74 1008.65 1008.56 1008.51 1008.55 1008.67 1008.87 1009.09 1009.28 1009.39 1009.37 1009.22 1008.91 1008.49 1007.98 1007.45 1006.93 1006.46 1006.08 1005.81 1005.64 1005.60 1005.68 1005.89 1006.23 1006.70 1007.31 1008.04 1008.86 1009.75 1010.67 1011.57 1012.42 1013.19 1013.88 1014.47 1015.00 1015.47 1015.93 1016.38 1016.86 1017.37
1008.24 1008.22 1008.10 1007.95 1007.84 1007.83 1007.96 1008.21 1008.55 1008.90 1009.19 1009.36 1009.35 1009.14 1008.75 1008.20 1007.58 1006.93 1006.33 1005.81 1005.40 1005.13 1004.98 1004.96 1005.07 1005.30 1005.66 1006.15 1006.77 1007.51 1008.35 1009.27 1010.21 1011.13 1012.00 1012.78 1013.46 1014.06 1014.58 1015.05 1015.52 1016.01 1016.52 1017.08
1007.51 1007.44 1007.30 1007.15 1007.10 1007.19 1007.46 1007.87 1008.36 1008.84 1009.21 1009.39 1009.34 1009.03 1008.50 1007.81 1007.04 1006.28 1005.59 1005.03 1004.63 1004.38 1004.29 1004.34 1004.50 1004.78 1005.18 1005.69 1006.32 1007.07 1007.92 1008.84 1009.78 1010.70 1011.57 1012.36 1013.04 1013.64 1014.17 1014.67 1015.17 1015.70 1016.26 1016.86
1006.51 1006.43 1006.32 1006.25 1006.33 1006.59 1007.05 1007.65 1008.30 1008.89 1009.30 1009.45 1009.30 1008.85 1008.15 1007.28 1006.36 1005.48 1004.72 1004.15 1003.78 1003.60 1003.60 1003.74 1004.00 1004.35 1004.79 1005.33 1005.98 1006.72 1007.55 1008.45 1009.37 1010.28 1011.14 1011.92 1012.61 1013.22 1013.78 1014.32 1014.86 1015.43 1016.05 1016.70
1005.26 1005.21 1005.17 1005.25 1005.51 1006.00 1006.68 1007.48 1008.29 1008.96 1009.39 1009.48 1009.20 1008.57 1007.68 1006.63 1005.55 1004.57 1003.78 1003.22 1002.91 1002.84 1002.97 1003.23 1003.60 1004.04 1004.54 1005.10 1005.74 1006.46 1007.25 1008.10 1008.98 1009.86 1010.69 1011.46 1012.16 1012.79 1013.38 1013.97 1014.56 1015.20 1015.87 1016.57
1003.84 1003.82 1003.89 1004.13 1004.62 1005.35 1006.27 1007.28 1008.23 1008.97 1009.38 1009.38 1008.96 1008.15 1007.07 1005.86 1004.66 1003.61 1002.82 1002.32 1002.12 1002.18 1002.45 1002.86 1003.34 1003.87 1004.42 1004.99 1005.61 1006.28 1007.01 1007.80 1008.62 1009.44 1010.23 1010.99 1011.69 1012.34 1012.98 1013.61 1014.26 1014.96 1015.68 1016.43
1002.38 1002.37 1002.53 1002.95 1003.65 1004.62 1005.76 1006.95 1008.02 1008.81 1009.19 1009.10 1008.54 1007.58 1006.35 1005.02 1003.75 1002.69 1001.94 1001.54 1001.47 1001.69 1002.11 1002.66 1003.26 1003.86 1004.43 1005.00 1005.58 1006.18 1006.83 1007.53 1008.27 1009.02 1009.78 1010.51 1011.21 1011.89 1012.56 1013.24 1013.94 1014.69 1015.48 1016.27
1000.99 1000.96 1001.19 1001.74 1002.62 1003.78 1005.11 1006.45 1007.60 1008.41 1008.76 1008.59 1007.92 1006.86 1005.54 1004.16 1002.89 1001.88 1001.23 1000.95 1001.04 1001.42 1001.99 1002.66 1003.34 1003.98 1004.56 1005.10 1005.61 1006.13 1006.69 1007.29 1007.95 1008.64 1009.35 1010.05 1010.75 1011.44 1012.14 1012.86 1013.61 1014.40 1015.22 1016.06
999.82 999.73 999.97 1000.60 1001.60 1002.89 1004.34 1005.76 1006.95 1007.76 1008.07 1007.84 1007.12 1006.01 1004.69 1003.33 1002.14 1001.24 1000.73 1000.61 1000.85 1001.37 1002.06 1002.82 1003.54 1004.19 1004.75 1005.23 1005.66 1006.09 1006.56 1007.08 1007.66 1008.29 1008.96 1009.64 1010.34 1011.04 1011.75 1012.49 1013.26 1014.08 1014.93 1015.79
998.98 998.78 998.99 999.63 1000.67 1002.00 1003.48 1004.91 1006.10 1006.88 1007.16 1006.90 1006.17 1005.09 1003.83 1002.58 1001.52 1000.78 1000.43 1000.48 1000.86 1001.50 1002.26 1003.06 1003.79 1004.41 1004.92 1005.32 1005.68 1006.03 1006.42 1006.87 1007.39 1007.99 1008.63 1009.30 1009.98 1010.68 1011.40 1012.14 1012.91 1013.73 1014.58 1015.45
998.53 998.21 998.34 998.92 999.91 1001.21 1002.63 1004.00 1005.12 1005.84 1006.07 1005.81 1005.12 1004.12 1002.98 1001.90 1001.02 1000.47 1000.29 1000.48 1000.98 1001.68 1002.48 1003.26 1003.95 1004.52 1004.96 1005.30 1005.59 1005.89 1006.23 1006.65 1007.15 1007.73 1008.36 1009.03 1009.71 1010.40 1011.10 1011.82 1012.58 1013.37 1014.19 1015.05
998.48 998.04 998.06 998.53 999.40 1000.57 1001.86 1003.09 1004.08 1004.71 1004.89 1004.63 1004.00 1003.12 1002.15 1001.26 1000.58 1000.22 1000.20 1000.50 1001.07 1001.79 1002.57 1003.31 1003.94 1004.44 1004.82 1005.10 1005.36 1005.63 1005.97 1006.39 1006.90 1007.50 1008.15 1008.82 1009.50 1010.18 1010.86 1011.55 1012.26 1013.01 1013.80 1014.62
998.78 998.24 998.12 998.44 999.14 1000.11 1001.19 1002.23 1003.05 1003.55 1003.67 1003.42 1002.86 1002.11 1001.32 1000.62 1000.14 999.94 1000.05 1000.43 1001.02 1001.72 1002.45 1003.11 1003.67 1004.10 1004.43 1004.69 1004.95 1005.24 1005.62 1006.09 1006.65 1007.28 1007.96 1008.66 1009.34 1010.02 1010.67 1011.32 1011.98 1012.67 1013.41 1014.18
999.33 998.70 998.46 998.61 999.09 999.82 1000.64 1001.43 1002.04 1002.39 1002.43 1002.18 1001.69 1001.08 1000.45 999.94 999.63 999.57 999.77 1000.18 1000.76 1001.41 1002.06 1002.64 1003.12 1003.50 1003.81 1004.09 1004.38 1004.74 1005.18 1005.73 1006.36 1007.06 1007.78 1008.50 1009.20 1009.86 1010.49 1011.11 1011.72 1012.36 1013.04 1013.77
1000.01 999.31 998.94 998.90 999.15 999.60 1000.14 1000.66 1001.05 1001.23 1001.18 1000.92 1000.50 1000.01 999.54 999.19 999.02 999.07 999.32 999.74 1000.28 1000.86 1001.42 1001.92 1002.35 1002.71 1003.02 1003.34 1003.71 1004.15 1004.69 1005.33 1006.04 1006.80 1007.57 1008.33 1009.04 1009.70 1010.31 1010.90 1011.48 1012.09 1012.72 1013.40
1000.66 999.91 999.42 999.18 999.18 999.35 999.60 999.85 1000.01 1000.04 999.91 999.65 999.30 998.92 998.59 998.39 998.34 998.46 998.74 999.15 999.63 1000.14 1000.63 1001.07 1001.46 1001.82 1002.17 1002.56 1003.01 1003.55 1004.19 1004.91 1005.70 1006.52 1007.33 1008.10 1008.82 1009.49 1010.10 1010.68 1011.25 1011.83 1012.44 1013.09
1001.18 1000.37 999.74 999.30 999.06 998.95 998.93 998.93 998.89 998.79 998.60 998.36 998.08 997.83 997.64 997.57 997.62 997.81 998.12 998.51 998.95 999.40 999.83 1000.23 1000.61 1000.98 1001.39 1001.84 1002.38 1003.01 1003.73 1004.52 1005.36 1006.21 1007.03 1007.82 1008.55 1009.22 1009.84 1010.43 1011.01 1011.59 1012.20 1012.83
1001.47 1000.57 999.80 999.17 998.69 998.33 998.06 997.85 997.66 997.46 997.26 997.07 996.90 996.78 996.74 996.80 996.97 997.23 997.57 997.96 998.36 998.77 999.17 999.55 999.94 1000.34 1000.79 1001.31 1001.92 1002.61 1003.37 1004.19 1005.04 1005.89 1006.71 1007.49 1008.22 1008.89 1009.53 1010.14 1010.75 1011.36 1011.98 1012.62
1001.49 1000.50 999.57 998.75 998.05 997.47 997.00 996.63 996.34 996.10 995.94 995.83 995.79 995.83 995.96 996.17 996.45 996.80 997.19 997.59 997.99 998.39 998.77 999.15 999.55 999.98 1000.48 1001.04 1001.68 1002.39 1003.16 1003.97 1004.80 1005.61 1006.40 1007.15 1007.86 1008.54 1009.20 1009.84 1010.49 1011.14 1011.79 1012.44
1001.30 1000.19 999.10 998.10 997.21 996.45 995.82 995.34 994.99 994.77 994.67 994.69 994.81 995.02 995.33 995.70 996.13 996.58 997.03 997.48 997.90 998.30 998.70 999.09 999.50 999.96 1000.46 1001.04 1001.68 1002.38 1003.12 1003.88 1004.65 1005.40 1006.13 1006.84 1007.53 1008.20 1008.88 1009.55 1010.24 1010.92 1011.60 1012.26
1000.98 999.74 998.51 997.34 996.29 995.38 994.64 994.09 993.73 993.56 993.55 993.71 994.00 994.40 994.89 995.43 996.00 996.56 997.10 997.61 998.08 998.51 998.92 999.33 999.76 1000.22 1000.74 1001.30 1001.92 1002.57 1003.25 1003.94 1004.63 1005.30 1005.97 1006.62 1007.28 1007.94 1008.62 1009.32 1010.03 1010.74 1011.43 1012.09
1000.64 999.28 997.92 996.61 995.43 994.42 993.61 993.02 992.68 992.56 992.66 992.95 993.41 993.98 994.64 995.34 996.04 996.72 997.36 997.94 998.46 998.94 999.38 999.82 1000.26 1000.73 1001.23 1001.77 1002.34 1002.93 1003.54 1004.15 1004.75 1005.35 1005.95 1006.55 1007.17 1007.81 1008.48 1009.18 1009.89 1010.60 1011.28 1011.92
1000.38 998.93 997.46 996.06 994.79 993.71 992.85 992.25 991.93 991.87 992.06 992.46 993.04 993.75 994.54 995.37 996.20 996.98 997.71 998.37 998.96 999.49 999.97 1000.44 1000.90 1001.37 1001.85 1002.36 1002.89 1003.42 1003.96 1004.50 1005.03 1005.56 1006.10 1006.65 1007.23 1007.85 1008.50 1009.18 1009.86 1010.54 1011.18 1011.78
1000.25 998.75 997.23 995.78 994.46 993.34 992.46 991.86 991.55 991.52 991.76 992.23 992.89 993.69 994.58 995.50 996.41 997.28 998.09 998.82 999.48 1000.07 1000.60 1001.10 1001.58 1002.06 1002.54 1003.02 1003.51 1004.00 1004.49 1004.97 1005.45 1005.94 1006.43 1006.95 1007.50 1008.07 1008.69 1009.32 1009.95 1010.57 1011.14 1011.66
1000.25 998.74 997.23 995.78 994.46 993.33 992.45 991.85 991.54 991.53 991.78 992.27 992.95 993.78 994.70 995.67 996.63 997.57 998.44 999.24 999.96 1000.61 1001.20 1001.75 1002.26 1002.75 1003.24 1003.71 1004.18 1004.64 1005.10 1005.55 1006.00 1006.46 1006.93 1007.42 1007.94 1008.48 1009.04 1009.60 1010.16 1010.69 1011.17 1011.59
1000.27 998.82 997.36 995.96 994.69 993.60 992.75 992.16 991.86 991.83 992.06 992.53 993.19 994.00 994.91 995.88 996.86 997.83 998.74 999.60 1000.39 1001.10 1001.76 1002.35 1002.91 1003.43 1003.92 1004.40 1004.86 1005.31 1005.75 1006.20 1006.64 1007.09 1007.55 1008.02 1008.51 1009.01 1009.51 1010.00 1010.46 1010.89 1011.26 1011.57
Thickness
5626 5622 5626 5640 5647 5651 5654 5656 5659 5671 5681 5674 5670 5675 5688 5699 5703 5706 5712 5717 5721 5727 5735 5738 5738 5736 5732 5727 5722 5717 5710 5703 5697 5691 5684 5678 5672 5667 5662 5658 5653 5647 5642 5636
5614 5619 5639 5645 5648 5646 5646 5644 5650 5663 5673 5668 5663 5669 5684 5695 5700 5705 5709 5714 5718 5723 5727 5730 5731 5729 5726 5721 5716 5712 5706 5699 5694 5688 5682 5675 5668 5662 5657 5651 5646 5641 5636 5631
5614 5633 5641 5639 5639 5638 5640 5640 5643 5648 5658 5661 5655 5656 5673 5692 5701 5706 5711 5715 5717 5718 5719 5721 5721 5720 5718 5714 5710 5706 5701 5695 5689 5682 5675 5667 5660 5653 5647 5643 5639 5635 5630 5625
5614 5631 5634 5631 5634 5636 5632 5645 5644 5642 5635 5634 5644 5634 5664 5682 5690 5699 5704 5707 5710 5714 5716 5715 5714 5711 5709 5707 5703 5699 5694 5689 5683 5677 5669 5662 5656 5649 5644 5638 5633 5628 5624 5619
5613 5627 5627 5628 5636 5638 5636 5644 5639 5635 5627 5624 5633 5627 5653 5678 5680 5691 5698 5702 5705 5707 5708 5708 5707 5704 5702 5699 5695 5691 5686 5681 5676 5671 5664 5657 5651 5645 5638 5632 5626 5621 5616 5611
5615 5629 5631 5633 5639 5640 5637 5631 5627 5624 5616 5607 5627 5623 5640 5668 5681 5690 5695 5697 5698 5700 5701 5700 5699 5696 5693 5689 5685 5681 5677 5672 5668 5663 5657 5651 5645 5639 5632 5625 5619 5613 5608 5603
5598 5614 5628 5634 5625 5628 5626 5610 5593 5589 5589 5603 5634 5629 5646 5677 5688 5689 5689 5690 5692 5692 5690 5689 5687 5685 5682 5678 5674 5671 5667 5663 5659 5655 5650 5645 5640 5634 5628 5621 5614 5608 5602 5596
5586 5596 5617 5625 5625 5619 5618 5611 5595 5590 5597 5615 5630 5629 5655 5682 5687 5688 5688 5686 5685 5684 5681 5680 5678 5675 5672 5668 5664 5661 5658 5655 5651 5647 5643 5639 5634 5629 5622 5616 5609 5603 5597 5591
5595 5600 5621 5625 5629 5624 5613 5611 5618 5609 5611 5606 5619 5641 5661 5675 5677 5678 5678 5677 5675 5674 5674 5672 5670 5667 5664 5660 5656 5653 5650 5646 5643 5639 5635 5631 5627 5622 5616 5610 5603 5597 5591 5585
5605 5601 5614 5618 5617 5619 5621 5615 5605 5596 5586 5585 5608 5624 5639 5657 5663 5668 5668 5667 5667 5667 5666 5665 5662 5660 5657 5653 5649 5646 5643 5640 5636 5633 5629 5625 5620 5615 5610 5603 5597 5591 5585 5578
5595 5595 5600 5606 5604 5608 5609 5609 5607 5600 5598 5594 5599 5622 5660 5662 5664 5663 5663 5664 5663 5661 5659 5657 5655 5653 5650 5647 5643 5640 5637 5633 5630 5626 5622 5618 5613 5608 5602 5596 5590 5584 5578 5572
5589 5588 5585 5593 5609 5616 5613 5613 5608 5594 5597 5604 5601 5621 5664 5664 5664 5662 5660 5660 5659 5657 5655 5653 5650 5647 5643 5640 5637 5634 5631 5628 5624 5620 5616 5611 5606 5601 5595 5589 5583 5577 5571 5564
5582 5576 5569 5570 5580 5593 5600 5609 5612 5609 5605 5603 5599 5617 5656 5657 5657 5658 5656 5654 5652 5651 5650 5647 5644 5641 5638 5635 5632 5629 5626 5622 5618 5614 5609 5604 5599 5593 5588 5582 5576 5570 5564 5557
5580 5571 5572 5576 5589 5596 5594 5602 5610 5606 5598 5601 5609 5622 5639 5645 5647 5649 5650 5650 5648 5647 5645 5642 5639 5637 5634 5631 5627 5624 5620 5617 5612 5607 5602 5597 5592 5587 5581 5575 5569 5563 5557 5550
5565 5563 5573 5585 5600 5603 5600 5602 5607 5608 5611 5607 5618 5623 5635 5641 5644 5646 5647 5648 5647 5645 5643 5640 5636 5633 5630 5627 5623 5620 5615 5611 5607 5601 5596 5590 5585 5579 5573 5567 5561 5555 5548 5542
5550 5556 5564 5573 5590 5597 5595 5601 5605 5608 5614 5615 5619 5625 5643 5647 5647 5646 5646 5646 5644 5643 5642 5639 5635 5631 5627 5624 5620 5616 5611 5606 5601 5595 5589 5583 5577 5571 5565 5559 5553 5546 5539 5533
5533 5543 5550 5559 5577 5581 5580 5598 5605 5610 5617 5618 5616 5629 5637 5637 5639 5641 5643 5643 5641 5641 5639 5636 5632 5628 5625 5621 5617 5611 5606 5600 5594 5588 5582 5576 5570 5563 5557 5551 5544 5537 5530 5524
5523 5532 5540 5551 5559 5556 5590 5612 5612 5612 5619 5624 5627 5631 5633 5635 5639 5641 5642 5640 5638 5637 5635 5631 5627 5624 5620 5616 5611 5606 5600 5594 5587 5581 5575 5569 5562 5555 5548 5542 5535 5528 5522 5515
5530 5529 5534 5541 5550 5564 5593 5609 5613 5609 5614 5627 5626 5630 5632 5634 5632 5632 5639 5638 5634 5632 5629 5625 5622 5618 5614 5610 5605 5598 5592 5585 5579 5573 5567 5561 5554 5546 5539 5533 5526 5519 5513 5506
5534 5533 5529 5535 5545 5559 5595 5613 5620 5611 5604 5627 5628 5628 5628 5624 5612 5620 5630 5629 5625 5623 5619 5616 5613 5610 5605 5601 5597 5590 5583 5576 5571 5565 5559 5553 5546 5538 5531 5524 5517 5511 5504 5498
5524 5525 5525 5531 5544 5570 5603 5612 5610 5591 5607 5629 5631 5630 5627 5621 5621 5621 5620 5617 5614 5611 5608 5606 5603 5598 5595 5592 5587 5580 5573 5567 5562 5556 5550 5543 5536 5528 5521 5514 5508 5501 5494 5487
5524 5527 5530 5534 5542 5564 5600 5604 5602 5609 5624 5629 5630 5630 5627 5622 5617 5614 5610 5606 5602 5598 5596 5594 5589 5585 5583 5581 5576 5569 5562 5557 5552 5546 5539 5531 5525 5518 5511 5504 5497 5490 5483 5476
5527 5539 5547 5554 5568 5592 5598 5603 5611 5617 5617 5621 5621 5624 5621 5614 5609 5605 5600 5595 5592 5588 5585 5582 5577 5573 5570 5568 5564 5557 5551 5546 5540 5533 5526 5519 5513 5506 5500 5493 5486 5479 5472 5465
5528 5542 5549 5558 5573 5585 5592 5600 5605 5610 5612 5614 5615 5614 5613 5608 5603 5597 5592 5586 5582 5578 5574 5570 5566 5561 5557 5554 5550 5545 5540 5535 5528 5520 5513 5507 5500 5494 5488 5481 5475 5468 5461 5453
5518 5526 5539 5554 5572 5579 5586 5594 5598 5601 5603 5604 5605 5605 5604 5601 5595 5589 5583 5577 5572 5567 5563 5559 5555 5550 5545 5541 5537 5532 5528 5523 5515 5508 5501 5495 5489 5482 5476 5469 5463 5457 5452 5445
5518 5529 5536 5551 5569 5573 5582 5590 5593 5592 5593 5594 5594 5593 5594 5592 5587 5582 5575 5568 5562 5557 5552 5548 5543 5538 5533 5528 5523 5519 5515 5510 5503 5496 5489 5482 5476 5469 5463 5457 5451 5447 5441 5436